TimeCST,TemperatureF,Dew PointF,Humidity,Sea Level PressureIn,VisibilityMPH,Wind Direction,Wind SpeedMPH,Gust SpeedMPH,PrecipitationIn,Events,Conditions,WindDirDegrees,DateUTC
12:26 AM,53.6,48.2,82,29.99,10.0,South,12.7,-,N/A,Thunderstorm,Thunderstorm,170,2011-12-19 06:26:00
12:52 AM,53.1,48.9,86,29.95,10.0,South,11.5,-,N/A,Thunderstorm,Thunderstorm,170,2011-12-19 06:52:00
1:08 AM,53.6,50.0,88,29.97,10.0,South,16.1,-,N/A,,Overcast,170,2011-12-19 07:08:00
1:52 AM,53.1,48.9,86,29.90,10.0,SSE,15.0,-,N/A,,Overcast,160,2011-12-19 07:52:00
2:52 AM,53.1,48.0,83,29.87,10.0,SSE,12.7,-,N/A,,Overcast,150,2011-12-19 08:52:00
3:52 AM,52.0,50.0,93,29.84,6.0,SSE,13.8,-,N/A,,Overcast,150,2011-12-19 09:52:00
4:23 AM,51.8,51.8,100,29.85,4.0,SE,15.0,-,N/A,,Overcast,140,2011-12-19 10:23:00
4:52 AM,51.1,51.1,100,29.81,4.0,SE,13.8,-,N/A,,Overcast,130,2011-12-19 10:52:00
5:52 AM,52.0,52.0,100,29.77,3.0,SE,18.4,-,N/A,,Overcast,130,2011-12-19 11:52:00
6:52 AM,55.0,54.0,96,29.74,8.0,SE,23.0,-,N/A,,Overcast,140,2011-12-19 12:52:00
7:47 AM,55.4,55.4,100,29.76,9.0,SSE,20.7,26.5,N/A,,Overcast,150,2011-12-19 13:47:00
7:52 AM,55.9,55.9,100,29.74,10.0,SSE,18.4,26.5,N/A,,Overcast,150,2011-12-19 13:52:00
8:32 AM,57.2,57.2,100,29.76,2.0,SSE,19.6,-,0.00,Rain,Light Rain,150,2011-12-19 14:32:00
8:42 AM,57.2,57.2,100,29.75,3.0,SSE,20.7,26.5,0.01,Rain,Light Rain,150,2011-12-19 14:42:00
8:52 AM,57.0,57.0,100,29.73,3.0,SSE,19.6,28.8,0.01,Rain,Light Rain,150,2011-12-19 14:52:00
9:52 AM,59.0,57.9,96,29.75,5.0,SSE,16.1,-,0.06,Rain,Light Rain,160,2011-12-19 15:52:00
9:57 AM,59.0,57.2,94,29.78,2.5,SSE,16.1,-,0.03,Rain,Rain,160,2011-12-19 15:57:00
10:03 AM,59.0,59.0,100,29.78,3.0,SSE,17.3,23.0,0.04,Rain,Light Rain,160,2011-12-19 16:03:00
10:16 AM,59.0,59.0,100,29.78,2.0,South,13.8,21.9,0.06,Rain,Rain,170,2011-12-19 16:16:00
10:40 AM,59.0,59.0,100,29.79,2.0,SW,10.4,18.4,0.15,Rain,Heavy Rain,220,2011-12-19 16:40:00
10:50 AM,59.0,59.0,100,29.79,1.8,South,12.7,18.4,0.20,Rain,Rain,190,2011-12-19 16:50:00
10:52 AM,59.0,59.0,100,29.76,1.5,SSW,16.1,-,0.21,Rain,Rain,200,2011-12-19 16:52:00
11:17 AM,55.4,53.6,94,29.82,3.0,West,19.6,31.1,0.09,Rain,Light Rain,260,2011-12-19 17:17:00
11:30 AM,55.4,50.0,82,29.82,10.0,WSW,15.0,-,0.09,,Overcast,250,2011-12-19 17:30:00
11:52 AM,55.9,50.0,80,29.78,10.0,West,10.4,-,0.09,,Overcast,260,2011-12-19 17:52:00
12:52 PM,57.9,48.0,70,29.75,10.0,WSW,11.5,-,0.00,,Scattered Clouds,250,2011-12-19 18:52:00
1:52 PM,57.0,42.1,57,29.74,10.0,WSW,17.3,-,N/A,,Overcast,240,2011-12-19 19:52:00
2:52 PM,60.1,41.0,49,29.73,10.0,WSW,17.3,21.9,N/A,,Partly Cloudy,240,2011-12-19 20:52:00
3:52 PM,60.1,39.9,47,29.74,10.0,WSW,13.8,20.7,N/A,,Clear,240,2011-12-19 21:52:00
4:52 PM,60.1,35.1,39,29.75,10.0,WSW,17.3,23.0,N/A,,Clear,240,2011-12-19 22:52:00
5:52 PM,55.9,33.1,42,29.76,10.0,WSW,10.4,-,N/A,,Clear,240,2011-12-19 23:52:00
6:52 PM,51.1,34.0,52,29.79,10.0,SSW,4.6,-,N/A,,Clear,210,2011-12-20 00:52:00
7:52 PM,48.9,35.1,59,29.81,10.0,South,4.6,-,N/A,,Clear,180,2011-12-20 01:52:00
8:52 PM,45.0,36.0,71,29.82,10.0,South,4.6,-,N/A,,Clear,170,2011-12-20 02:52:00
9:52 PM,46.9,36.0,66,29.81,10.0,SSW,6.9,-,N/A,,Clear,210,2011-12-20 03:52:00
10:52 PM,48.0,35.1,61,29.82,10.0,SSW,9.2,-,N/A,,Clear,210,2011-12-20 04:52:00
11:52 PM,51.1,37.9,61,29.82,10.0,WSW,13.8,23.0,N/A,,Clear,240,2011-12-20 05:52:00